Iwojima, Japan

7:52 PM JST on March 26, 2017 (GMT +0900)
Iwojima Aero

Weather History for RJAW - October, 2013

Change the Weather History Date:

Thursday, October 24, 2013

  Actual Average Record
Temperature  
Mean Temperature 81 °F -  
Max Temperature 84 °F 78 °F 84 °F (1998)
Min Temperature 78 °F 73 °F 73 °F (2014)
Cooling Degree Days 16    
Growing Degree Days 31 (Base 50)    
Moisture  
Dew Point 73 °F    
Average Humidity 74    
Maximum Humidity 84    
Minimum Humidity 70    
Precipitation  
Precipitation 0.00 in - - ()
Sea Level Pressure  
Sea Level Pressure 29.74 in    
Wind  
Wind Speed 13 mph ()    
Max Wind Speed 20 mph    
Max Gust Speed -    
Visibility 6.2 miles    
Events      
Averages and records for this station are not official NWS values.
T = Trace of Precipitation, MM = Missing Value Source: Averaged Metar Reports

Daily Weather History Graph

Daily Weather History Graph

Search for Another Location

Airport or City:

Trip Planner

Search our weather history database for the weather conditions in past years. The results will help you decide how hot, cold, wet, or windy it might be!

Date:

Astronomy

Oct. 24, 2013 Rise Set
Actual Time 6:37 AM ChST 6:00 PM ChST
Civil Twilight 6:13 AM ChST 6:23 PM ChST
Nautical Twilight 5:47 AM ChST 6:50 PM ChST
Astronomical Twilight 5:20 AM ChST 7:16 PM ChST
Moon 10:04 PM ChST (10/24) 10:55 AM ChST (10/24)
Length of Visible Light 12h 09m
Length of Day
11h 23m
Waning Gibbous, 76% of the Moon is Illuminated
Oct 24
Waning Gibbous
Oct 27
Last Quarter
Nov 3
New
Nov 10
First Quarter
Nov 18
Full

Hourly Weather History & Observations

Time (ChST) Temp. Heat Index Dew Point Humidity Pressure Visibility Wind Dir Wind Speed Gust Speed Precip Events Conditions
1:00 AM 78.8 °F - 71.6 °F 78% 29.80 in 6.2 mi ESE 17.3 mph - N/A   Mostly Cloudy
4:00 AM 78.8 °F - 71.6 °F 78% 29.77 in 6.2 mi East 12.7 mph - N/A   Scattered Clouds
6:00 AM 78.8 °F - 71.6 °F 78% 29.77 in 6.2 mi ESE 13.8 mph - N/A   Scattered Clouds
7:00 AM 78.8 °F - 71.6 °F 78% 29.80 in 6.2 mi ESE 13.8 mph - N/A   Scattered Clouds
8:00 AM 80.6 °F 84.6 °F 71.6 °F 74% 29.80 in 6.2 mi ESE 15.0 mph - N/A   Scattered Clouds
9:00 AM 80.6 °F 84.6 °F 71.6 °F 74% 29.80 in 6.2 mi East 12.7 mph - N/A   Mostly Cloudy
9:36 AM 82.4 °F 88.2 °F 73.4 °F 74% 29.80 in 6.2 mi East 12.7 mph - N/A   Mostly Cloudy
10:00 AM 82.4 °F 88.2 °F 73.4 °F 74% 29.80 in 6.2 mi East 15.0 mph - N/A   Mostly Cloudy
10:11 AM 84.2 °F 90.9 °F 73.4 °F 70% 29.80 in 6.2 mi East 13.8 mph - N/A   Mostly Cloudy
10:31 AM 82.4 °F 88.2 °F 73.4 °F 74% 29.77 in 6.2 mi East 13.8 mph - N/A   Mostly Cloudy
11:00 AM 84.2 °F 90.9 °F 73.4 °F 70% 29.77 in 6.2 mi East 13.8 mph - N/A   Mostly Cloudy
11:22 AM 84.2 °F 90.9 °F 73.4 °F 70% 29.77 in 6.2 mi East 15.0 mph - N/A   Scattered Clouds
12:00 PM 84.2 °F 92.3 °F 75.2 °F 74% 29.74 in 6.2 mi East 16.1 mph - N/A   Scattered Clouds
1:00 PM 84.2 °F 90.9 °F 73.4 °F 70% 29.71 in 6.2 mi East 16.1 mph - N/A   Partly Cloudy
2:00 PM 84.2 °F 90.9 °F 73.4 °F 70% 29.68 in 6.2 mi East 16.1 mph - N/A   Partly Cloudy
3:00 PM 84.2 °F 90.9 °F 73.4 °F 70% 29.68 in 6.2 mi East 17.3 mph - N/A   Partly Cloudy
4:00 PM 84.2 °F 90.9 °F 73.4 °F 70% 29.65 in 6.2 mi ENE 18.4 mph - N/A   Scattered Clouds
5:00 PM 82.4 °F 88.2 °F 73.4 °F 74% 29.65 in 6.2 mi ENE 16.1 mph - N/A   Scattered Clouds
6:00 PM 82.4 °F 88.2 °F 73.4 °F 74% 29.65 in 6.2 mi East 17.3 mph - N/A   Mostly Cloudy
7:00 PM 80.6 °F 85.4 °F 73.4 °F 79% 29.65 in 6.2 mi ENE 19.6 mph - N/A   Mostly Cloudy
10:00 PM 80.6 °F 86.2 °F 75.2 °F 84% 29.65 in 6.2 mi ENE 16.1 mph - N/A   Mostly Cloudy